Madison, MN

6:48 PM CST on February 13, 2016 (GMT -0600)
Madison-Lac Qui Parle County

Weather History for KDXX - November, 2013

Change the Weather History Date:

Thursday, November 28, 2013

  Actual Average (KAQP) Record (KAQP)
Temperature  
Mean Temperature 18 °F -  
Max Temperature 26 °F 32 °F 50 °F (1998)
Min Temperature 8 °F 16 °F 5 °F (1996)
Degree Days  
Heating Degree Days 47    
Moisture  
Dew Point 12 °F    
Average Humidity 67    
Maximum Humidity 80    
Minimum Humidity 51    
Precipitation  
Precipitation 0.00 in - - ()
Sea Level Pressure  
Sea Level Pressure 30.34 in    
Wind  
Wind Speed 11 mph (NNW)    
Max Wind Speed 22 mph    
Max Gust Speed 30 mph    
Visibility 10 miles    
Events Snow    
Averages and records for this station are not official NWS values.
T = Trace of Precipitation, MM = Missing Value Source: NWS Daily Summary

Daily Weather History Graph

Daily Weather History Graph

Search for Another Location

Airport or City:

Trip Planner

Search our weather history database for the weather conditions in past years. The results will help you decide how hot, cold, wet, or windy it might be!

Date:

Astronomy

Nov. 28, 2013 Rise Set
Actual Time 7:39 AM CST 4:45 PM CST
Civil Twilight 7:06 AM CST 5:18 PM CST
Nautical Twilight 6:30 AM CST 5:55 PM CST
Astronomical Twilight 5:54 AM CST 6:30 PM CST
Moon 2:31 AM CST (11/28) 2:06 PM CST (11/28)
Length of Visible Light 10h 12m
Length of Day
9h 06m
Waning Crescent, 22% of the Moon is Illuminated
Nov 28
Waning Crescent
Dec 2
New
Dec 9
First Quarter
Dec 17
Full
Dec 25
Last Quarter

Hourly Weather History & Observations

Time (CST) Temp. Windchill Dew Point Humidity Pressure Visibility Wind Dir Wind Speed Gust Speed Precip Events Conditions
12:13 AM 10.4 °F 2.2 °F 5.0 °F 79% 30.06 in 10.0 mi WNW 4.6 mph - N/A   Clear
12:33 AM 12.2 °F 1.7 °F 6.8 °F 79% 30.07 in 10.0 mi NW 6.9 mph - N/A   Clear
12:54 AM 12.2 °F 4.3 °F 6.8 °F 79% 30.08 in 10.0 mi NW 4.6 mph - N/A   Clear
1:13 AM 17.6 °F 4.3 °F 12.2 °F 79% 30.08 in 10.0 mi NW 12.7 mph - N/A   Clear
1:33 AM 19.4 °F 6.0 °F 12.2 °F 74% 30.09 in 10.0 mi NW 13.8 mph - N/A   Clear
1:54 AM 19.4 °F 6.6 °F 14.0 °F 80% 30.10 in 10.0 mi NW 12.7 mph - N/A   Scattered Clouds
2:13 AM 21.2 °F 7.8 °F 15.8 °F 80% 30.12 in 10.0 mi NW 15.0 mph 18.4 mph N/A   Mostly Cloudy
2:33 AM 21.2 °F 7.3 °F 15.8 °F 80% 30.13 in 10.0 mi NNW 16.1 mph - N/A   Overcast
2:54 AM 23.0 °F 10.6 °F 15.8 °F 74% 30.14 in 10.0 mi NNW 13.8 mph 21.9 mph N/A   Overcast
3:13 AM 23.0 °F 10.1 °F 15.8 °F 74% 30.15 in 10.0 mi NNW 15.0 mph - N/A   Overcast
3:33 AM 24.8 °F 13.4 °F 15.8 °F 69% 30.16 in 10.0 mi NNW 12.7 mph - N/A   Overcast
3:54 AM 24.8 °F 11.9 °F 15.8 °F 69% 30.17 in 10.0 mi NNW 16.1 mph - N/A   Overcast
4:13 AM 24.8 °F 12.4 °F 17.6 °F 74% 30.18 in 10.0 mi NNW 15.0 mph - N/A   Overcast
4:34 AM 26.6 °F 14.3 °F 17.6 °F 69% 30.18 in 10.0 mi NNW 16.1 mph - N/A   Overcast
4:54 AM 26.6 °F 14.7 °F 17.6 °F 69% 30.20 in 10.0 mi NNW 15.0 mph - N/A   Overcast
5:13 AM 26.6 °F 15.7 °F 17.6 °F 69% 30.21 in 10.0 mi NNW 12.7 mph - N/A   Overcast
5:34 AM 26.6 °F 14.7 °F 17.6 °F 69% 30.22 in 10.0 mi NNW 15.0 mph - N/A   Overcast
5:53 AM 26.6 °F 14.3 °F 17.6 °F 69% 30.23 in 10.0 mi NNW 16.1 mph 21.9 mph N/A   Overcast
6:14 AM 26.6 °F 15.2 °F 17.6 °F 69% 30.24 in 10.0 mi NNW 13.8 mph 19.6 mph N/A   Overcast
6:33 AM 26.6 °F 15.2 °F 19.4 °F 74% 30.25 in 10.0 mi NNW 13.8 mph 17.3 mph N/A Snow Light Snow
6:54 AM 26.6 °F 16.2 °F 19.4 °F 74% 30.26 in 10.0 mi NNW 11.5 mph 17.3 mph N/A Snow Light Snow
7:14 AM 26.6 °F 14.3 °F 19.4 °F 74% 30.28 in 10.0 mi NNW 16.1 mph - N/A Snow Light Snow
7:33 AM 26.6 °F 14.7 °F 19.4 °F 74% 30.28 in 10.0 mi North 15.0 mph - N/A Snow Light Snow
7:54 AM 26.6 °F 16.8 °F 19.4 °F 74% 30.29 in 10.0 mi NNW 10.4 mph - N/A Snow Light Snow
8:14 AM 26.6 °F 16.8 °F 19.4 °F 74% 30.30 in 10.0 mi NNW 10.4 mph - N/A Snow Light Snow
8:33 AM 24.8 °F 12.4 °F 17.6 °F 74% 30.31 in 10.0 mi NNW 15.0 mph 18.4 mph N/A   Overcast
8:54 AM 24.8 °F 14.6 °F 17.6 °F 74% 30.33 in 10.0 mi North 10.4 mph - N/A Snow Light Snow
9:14 AM 24.8 °F 12.4 °F 17.6 °F 74% 30.34 in 5.0 mi North 15.0 mph 25.3 mph N/A Snow Light Snow
9:33 AM 24.8 °F 10.7 °F 12.2 °F 59% 30.36 in 7.0 mi North 19.6 mph 25.3 mph N/A Snow Light Snow
9:54 AM 24.8 °F 10.7 °F 12.2 °F 59% 30.37 in 10.0 mi North 19.6 mph - N/A   Overcast
10:14 AM 24.8 °F 10.7 °F 12.2 °F 59% 30.37 in 10.0 mi NNW 19.6 mph 25.3 mph N/A   Mostly Cloudy
10:33 AM 24.8 °F 11.1 °F 12.2 °F 59% 30.38 in 10.0 mi NNW 18.4 mph - N/A   Scattered Clouds
10:53 AM 24.8 °F 10.0 °F 12.2 °F 59% 30.38 in 10.0 mi North 21.9 mph 26.5 mph N/A   Scattered Clouds
11:14 AM 26.6 °F 12.4 °F 12.2 °F 55% 30.38 in 10.0 mi NNW 21.9 mph 29.9 mph N/A   Scattered Clouds
11:33 AM 24.8 °F 10.3 °F 12.2 °F 59% 30.39 in 10.0 mi North 20.7 mph 25.3 mph N/A   Scattered Clouds
11:53 AM 26.6 °F 12.4 °F 12.2 °F 55% 30.39 in 10.0 mi NNW 21.9 mph - N/A   Scattered Clouds
12:13 PM 26.6 °F 13.4 °F 12.2 °F 55% 30.39 in 10.0 mi NW 18.4 mph 23.0 mph N/A   Scattered Clouds
12:33 PM 26.6 °F 14.3 °F 10.4 °F 51% 30.39 in 10.0 mi NNW 16.1 mph 25.3 mph N/A   Clear
12:54 PM 26.6 °F 13.4 °F 10.4 °F 51% 30.39 in 10.0 mi NNW 18.4 mph 21.9 mph N/A   Scattered Clouds
1:13 PM 26.6 °F 14.7 °F 10.4 °F 51% 30.39 in 10.0 mi NNW 15.0 mph 20.7 mph N/A   Clear
1:34 PM 26.6 °F 14.7 °F 10.4 °F 51% 30.39 in 10.0 mi NNW 15.0 mph 20.7 mph N/A   Clear
1:54 PM 26.6 °F 15.2 °F 10.4 °F 51% 30.39 in 10.0 mi NNW 13.8 mph 20.7 mph N/A   Clear
2:13 PM 26.6 °F 16.2 °F 10.4 °F 51% 30.39 in 10.0 mi NNW 11.5 mph 21.9 mph N/A   Clear
2:34 PM 26.6 °F 14.7 °F 10.4 °F 51% 30.40 in 10.0 mi NNW 15.0 mph - N/A   Clear
2:54 PM 26.6 °F 15.7 °F 10.4 °F 51% 30.40 in 10.0 mi NW 12.7 mph - N/A   Clear
3:13 PM 26.6 °F 16.2 °F 10.4 °F 51% 30.41 in 10.0 mi NNW 11.5 mph - N/A   Clear
3:34 PM 26.6 °F 17.5 °F 10.4 °F 51% 30.41 in 10.0 mi NNW 9.2 mph - N/A   Clear
3:54 PM 26.6 °F 17.5 °F 10.4 °F 51% 30.42 in 10.0 mi NW 9.2 mph 17.3 mph N/A   Clear
4:13 PM 26.6 °F 18.2 °F 10.4 °F 51% 30.43 in 10.0 mi NNW 8.1 mph - N/A   Clear
4:33 PM 24.8 °F 16.1 °F 10.4 °F 54% 30.43 in 10.0 mi NNW 8.1 mph - N/A   Clear
4:54 PM 21.2 °F 13.6 °F 10.4 °F 63% 30.44 in 10.0 mi NNW 5.8 mph - N/A   Clear
5:13 PM 21.2 °F 14.9 °F 8.6 °F 58% 30.44 in 10.0 mi NW 4.6 mph - N/A   Clear
5:34 PM 23.0 °F 18.4 °F 10.4 °F 59% 30.44 in 10.0 mi NNW 3.5 mph - N/A   Clear
5:54 PM 19.4 °F 12.8 °F 8.6 °F 63% 30.45 in 10.0 mi NNW 4.6 mph - N/A   Clear
6:13 PM 17.6 °F 12.3 °F 6.8 °F 63% 30.45 in 10.0 mi NNW 3.5 mph - N/A   Clear
6:34 PM 19.4 °F - 8.6 °F 63% 30.45 in 10.0 mi Calm Calm - N/A   Clear
6:53 PM 17.6 °F 12.3 °F 6.8 °F 63% 30.45 in 10.0 mi North 3.5 mph - N/A   Clear
7:14 PM 17.6 °F 8.2 °F 8.6 °F 68% 30.45 in 10.0 mi NE 6.9 mph - N/A   Clear
7:33 PM 15.8 °F - 6.8 °F 68% 30.45 in 10.0 mi Calm Calm - N/A   Clear
7:54 PM 17.6 °F - 8.6 °F 68% 30.46 in 10.0 mi Calm Calm - N/A   Clear
8:14 PM 15.8 °F - 8.6 °F 73% 30.46 in 10.0 mi Calm Calm - N/A   Clear
8:33 PM 12.2 °F - 6.8 °F 79% 30.46 in 10.0 mi Calm Calm - N/A   Clear
8:54 PM 12.2 °F - 6.8 °F 79% 30.47 in 10.0 mi Calm Calm - N/A   Clear
9:14 PM 10.4 °F - 3.2 °F 73% 30.47 in 10.0 mi Calm Calm - N/A   Clear
9:33 PM 12.2 °F - 5.0 °F 73% 30.47 in 10.0 mi Calm Calm - N/A   Clear
9:54 PM 10.4 °F - 3.2 °F 73% 30.46 in 10.0 mi Calm Calm - N/A   Clear
10:14 PM 10.4 °F - 5.0 °F 79% 30.46 in 10.0 mi Calm Calm - N/A   Clear
10:33 PM 10.4 °F - 3.2 °F 73% 30.46 in 10.0 mi Calm Calm - N/A   Clear
10:54 PM 10.4 °F - 5.0 °F 79% 30.47 in 10.0 mi Calm Calm - N/A   Clear
11:14 PM 10.4 °F - 5.0 °F 79% 30.46 in 10.0 mi Calm Calm - N/A   Clear
11:33 PM 10.4 °F - 3.2 °F 73% 30.47 in 10.0 mi Calm Calm - N/A   Clear
11:54 PM 8.6 °F 2.0 °F 3.2 °F 79% 30.48 in 10.0 mi SW 3.5 mph - N/A   Clear